Weather reports worldwide

Advertisment
Milano/Malpensa, Italy (16066): temperature & dewpoint: 03.08.2020 21:00:00 - 09.08.2020 21:00:00 (CEST)Milano/Malpensa, Italy (16066): wind speed: 03.08.2020 21:00:00 - 09.08.2020 21:00:00 (CEST)Milano/Malpensa, Italy (16066): wind direction: 03.08.2020 21:00:00 - 09.08.2020 21:00:00 (CEST)Milano/Malpensa, Italy (16066): reduced air pressure: 03.08.2020 21:00:00 - 09.08.2020 21:00:00 (CEST)Milano/Malpensa, Italy (16066): visibility: 03.08.2020 21:00:00 - 09.08.2020 21:00:00 (CEST)Milano/Malpensa, Italy (16066): precipitation: 03.08.2020 21:00:00 - 09.08.2020 21:00:00 (CEST)
Date & Time tt [°C] td [°C] ff [km/h] ff [kn] dd ppp [hPa] vv [km] rr [mm]
09.08.2020 21:00:00 29,0 14,0 2 1 - - 10 -
09.08.2020 20:00:00 31,0 14,5 8 4 SSW 1014,8 10 -
09.08.2020 19:00:00 33,0 13,0 13 7 SW - 10 -
09.08.2020 18:00:00 33,0 15,0 15 8 SW - 10 -
09.08.2020 17:00:00 33,2 13,8 16 9 WSW 1015,5 10 0,0
09.08.2020 16:00:00 34,0 11,0 16 9 WSW - 10 -
09.08.2020 15:00:00 34,0 14,0 16 9 WSW - 10 -
09.08.2020 14:00:00 32,8 13,9 15 8 SSW 1016,8 10 -
09.08.2020 13:00:00 33,0 13,0 11 6 - - 10 -
09.08.2020 12:00:00 32,0 17,0 8 4 WNW - 10 -
09.08.2020 11:00:00 30,9 18,0 4 2 - 1018,2 10 0,0
09.08.2020 10:00:00 28,0 19,0 8 4 NNE - 10 -
09.08.2020 09:00:00 27,0 19,0 8 4 N - 10 -
09.08.2020 08:00:00 23,9 19,5 8 4 NNE 1018,7 10 -
09.08.2020 07:00:00 21,0 18,0 9 5 N - 10 -
09.08.2020 06:00:00 21,0 18,0 11 6 NNE - 10 -
09.08.2020 05:00:00 20,5 17,6 9 5 N 1018,5 10 0,0
09.08.2020 04:00:00 21,0 18,0 11 6 N - 10 -
09.08.2020 03:00:00 21,0 18,0 8 4 NNE - 10 -
09.08.2020 02:00:00 21,0 19,0 4 2 N - 10 -
09.08.2020 01:00:00 22,0 19,0 5 3 NNE - 10 -
09.08.2020 00:00:00 22,0 18,0 4 2 - - 10 -
08.08.2020 23:00:00 23,3 18,3 5 3 N 1019,0 10 0,0
08.08.2020 22:00:00 25,0 18,0 4 2 NE - 10 -
08.08.2020 21:00:00 30,0 16,0 8 4 W - 10 -
08.08.2020 20:00:00 30,4 15,9 11 6 W 1018,3 10 -
08.08.2020 19:00:00 32,0 16,0 5 3 S - 10 -
08.08.2020 18:00:00 32,0 14,0 11 6 SSW - 10 -
08.08.2020 17:00:00 32,2 14,7 8 4 S 1018,6 10 0,0
08.08.2020 16:00:00 32,0 17,0 9 5 - - 10 -
08.08.2020 15:00:00 33,0 18,0 15 8 S - 10 -
08.08.2020 14:00:00 31,7 16,6 13 7 - 1019,2 10 -
08.08.2020 13:00:00 31,0 17,0 11 6 SW - 10 -
08.08.2020 12:00:00 31,0 17,0 8 4 - - 10 -
08.08.2020 11:00:00 29,3 17,5 8 4 - 1020,3 10 0,0
08.08.2020 10:00:00 27,0 19,0 5 3 - - 10 -
08.08.2020 09:00:00 25,0 19,0 8 4 NNE - 10 -
08.08.2020 08:00:00 23,5 18,9 8 4 N 1020,5 10 -
08.08.2020 07:00:00 20,0 18,0 11 6 N - 10 -
08.08.2020 06:00:00 20,0 18,0 11 6 N - 10 -
08.08.2020 05:00:00 20,5 18,0 8 4 N 1020,2 10 0,0
08.08.2020 04:00:00 21,0 18,0 5 3 NNE - 10 -
08.08.2020 03:00:00 22,0 19,0 9 5 N - 10 -
08.08.2020 02:00:00 22,1 18,5 9 5 N 1020,8 10 -
08.08.2020 01:00:00 23,0 19,0 8 4 N - 10 -
08.08.2020 00:00:00 22,0 18,0 9 5 N - 10 -
07.08.2020 23:00:00 23,5 18,1 5 3 NNE 1020,4 10 0,0
07.08.2020 22:00:00 26,0 18,0 4 2 - - 10 -
07.08.2020 21:00:00 27,0 18,0 8 4 S - 10 -
07.08.2020 20:00:00 29,5 16,4 8 4 S 1018,8 10 -
07.08.2020 19:00:00 31,0 16,0 8 4 SSW - 10 -
07.08.2020 18:00:00 31,0 15,0 11 6 SSE - 10 -
07.08.2020 17:00:00 31,6 15,2 13 7 SW 1018,8 10 0,0
07.08.2020 16:00:00 31,0 14,0 11 6 - - 10 -
07.08.2020 15:00:00 31,0 16,0 11 6 SSE - 10 -
07.08.2020 14:00:00 30,6 15,6 9 5 S 1019,3 10 -
07.08.2020 13:00:00 30,0 16,0 11 6 SSE - 10 -
07.08.2020 12:00:00 28,0 16,0 8 4 ENE - 10 -
07.08.2020 11:00:00 27,9 16,2 5 3 - 1019,8 10 0,0
07.08.2020 10:00:00 26,0 17,0 9 5 E - 10 -
07.08.2020 09:00:00 24,0 17,0 9 5 NNE - 10 -
07.08.2020 08:00:00 21,6 16,1 5 3 NE 1019,8 10 -
07.08.2020 07:00:00 17,0 15,0 8 4 NNE - 10 -
07.08.2020 06:00:00 17,0 15,0 4 2 NE - 10 -
07.08.2020 05:00:00 19,6 15,6 8 4 N 1019,3 10 0,0
07.08.2020 04:00:00 19,0 16,0 11 6 N - 10 -
07.08.2020 03:00:00 19,0 15,0 13 7 N - 10 -
07.08.2020 02:00:00 19,3 15,5 8 4 N 1020,1 10 -
07.08.2020 01:00:00 20,0 15,0 8 4 NNE - 10 -
07.08.2020 00:00:00 20,0 16,0 9 5 N - 10 -
06.08.2020 23:00:00 21,2 15,1 4 2 NE 1019,5 10 0,0
06.08.2020 22:00:00 23,0 15,0 5 3 NNE - 10 -
06.08.2020 21:00:00 27,0 13,0 9 5 W - 10 -
06.08.2020 20:00:00 28,0 13,6 11 6 WSW 1017,7 10 -
06.08.2020 19:00:00 29,0 13,0 15 8 WSW - 10 -
06.08.2020 18:00:00 30,0 13,0 16 9 WSW - 10 -
06.08.2020 17:00:00 29,9 13,1 13 7 SSW 1017,1 10 0,0
06.08.2020 16:00:00 30,0 12,0 11 6 S - 10 -
06.08.2020 15:00:00 30,0 12,0 13 7 WSW - 10 -
06.08.2020 14:00:00 28,9 12,8 9 5 - 1017,8 10 -
06.08.2020 13:00:00 28,0 13,0 8 4 - - 10 -
06.08.2020 12:00:00 28,0 12,0 9 5 - - 10 -
06.08.2020 11:00:00 26,2 13,2 5 3 N 1018,4 10 0,0
06.08.2020 10:00:00 24,0 14,0 5 3 N - 10 -
06.08.2020 09:00:00 22,0 14,0 9 5 N - 10 -
06.08.2020 08:00:00 19,9 14,4 9 5 N 1017,8 10 -
06.08.2020 07:00:00 17,0 14,0 11 6 NNE - 10 -
06.08.2020 06:00:00 16,0 13,0 9 5 N - 10 -
06.08.2020 05:00:00 15,8 13,3 11 6 N 1016,6 10 0,0
06.08.2020 04:00:00 17,0 13,0 9 5 N - 10 -
06.08.2020 03:00:00 16,0 13,0 9 5 NNE - 10 -
06.08.2020 02:00:00 16,3 13,3 9 5 NNE 1016,5 10 -
06.08.2020 01:00:00 18,0 14,0 8 4 NNE - 10 -
06.08.2020 00:00:00 - - - - - - - -
05.08.2020 23:00:00 18,8 13,6 8 4 N 1015,8 10 0,0
05.08.2020 22:00:00 22,0 13,0 2 1 - - 10 -
05.08.2020 21:00:00 24,0 12,0 8 4 SSW - 10 -
05.08.2020 20:00:00 26,2 11,2 11 6 S 1014,2 10 -
05.08.2020 19:00:00 27,0 10,0 13 7 SSW - 10 -
05.08.2020 18:00:00 28,0 10,0 9 5 SSE - 10 -
05.08.2020 17:00:00 27,8 10,3 9 5 S 1013,6 10 0,0
05.08.2020 16:00:00 28,0 9,0 15 8 S - 10 -
05.08.2020 15:00:00 28,0 8,0 16 9 SSW - 10 -
05.08.2020 14:00:00 28,0 8,0 15 8 SSW 1013,9 10 -
05.08.2020 13:00:00 27,0 11,0 11 6 - - 10 -
05.08.2020 12:00:00 26,0 9,0 9 5 W - 10 -
05.08.2020 11:00:00 26,0 6,7 4 2 - 1014,1 10 0,0
05.08.2020 10:00:00 25,0 9,0 4 2 - - 10 -
05.08.2020 09:00:00 21,0 8,0 9 5 N - 10 -
05.08.2020 08:00:00 19,2 10,2 13 7 N 1013,5 10 -
05.08.2020 07:00:00 16,0 8,0 2 1 - - 10 -
05.08.2020 06:00:00 14,0 7,0 9 5 NNE - 10 -
05.08.2020 05:00:00 15,6 6,0 8 4 N 1011,9 10 0,0
05.08.2020 04:00:00 18,0 5,0 8 4 NNE - 10 -
05.08.2020 03:00:00 17,0 5,0 9 5 N - 10 -
05.08.2020 02:00:00 19,5 3,6 11 6 NNW 1011,7 10 -
05.08.2020 01:00:00 20,0 3,0 11 6 NNW - 10 -
05.08.2020 00:00:00 21,0 3,0 9 5 N - 10 -
04.08.2020 23:00:00 22,1 2,9 24 13 NNE 1010,3 10 0,0
04.08.2020 22:00:00 22,0 4,0 16 9 NNE - 10 -
04.08.2020 21:00:00 24,0 4,0 28 15 NE - 10 -
04.08.2020 20:00:00 25,2 4,5 24 13 NE 1009,2 10 -
04.08.2020 19:00:00 27,0 5,0 28 15 NE - 10 -
04.08.2020 18:00:00 28,0 4,0 24 13 NE - 10 -
04.08.2020 17:00:00 28,0 4,0 29 16 NE 1007,4 10 0,0
04.08.2020 16:00:00 29,0 5,0 26 14 NNE - 10 -
04.08.2020 15:00:00 28,0 5,0 28 15 NE - 10 -
04.08.2020 14:00:00 28,1 6,6 21 11 NE 1006,9 10 -
04.08.2020 13:00:00 25,0 7,0 15 8 NNE - 10 -
04.08.2020 12:00:00 24,0 8,0 18 10 NNE - 10 -
04.08.2020 11:00:00 22,2 10,7 11 6 N 1006,1 10 0,0
04.08.2020 10:00:00 21,0 12,0 16 9 N - 10 -
04.08.2020 09:00:00 20,0 13,0 8 4 WNW - 10 -
04.08.2020 08:00:00 19,8 9,7 8 4 NNW 1005,0 10 -
04.08.2020 07:00:00 17,0 13,0 9 5 ENE - 10 -
04.08.2020 06:00:00 18,0 13,0 4 2 - - 10 -
04.08.2020 05:00:00 17,0 13,2 8 4 NW 1004,8 10 0,0
04.08.2020 04:00:00 18,0 12,0 4 2 - - 10 -
04.08.2020 03:00:00 20,0 9,0 13 7 NW - 10 -
04.08.2020 02:00:00 20,8 7,0 37 20 N 1005,1 10 -
04.08.2020 01:00:00 19,0 13,0 8 4 NW - 10 -
04.08.2020 00:00:00 18,0 14,0 16 9 ENE - 10 -
03.08.2020 23:00:00 19,1 15,8 11 6 NNW 1005,3 10 0,0
03.08.2020 22:00:00 20,0 17,0 9 5 NW - 10 -
03.08.2020 21:00:00 20,0 16,0 15 8 NNW - 10 -

tt = temperature
td = dewpoint
ff = wind speed
dd = wind direction
ppp = reduced air pressure
vv = visibility
rr = precipitation

Next stations